INTELSAT 902 (IS-902) (26900 NORAD) Tracking and Keplerian Element Data

This shows tracking and keplerian element data for the satellite.

Feedback or suggestion? Click here.




ElementValue
Catalog26900
NameINTELSAT 902 (IS-902)
Epoch Orbit8569
Epoch Day34.62425255
Epoch Year2025
RAAN77.8779
Inclination4.8519
Eccentricity0.0004578
Argument of Perigee240.7783
Mean Anonmoly349.9934
Mean Motion1.00272846
Decay Rate-2.8E-06
L11 26900U 01039A 25034.62425255 -.00000280 00000+0 00000+0 0 9994
L22 26900 4.8519 77.8779 0004578 240.7783 349.9934 1.00272846 85695



Live tracking and technical data element details for INTELSAT 902 (IS-902) (NORAD 26900). INTELSAT 902 (IS-902) can be tracked NOW for your location showing map with azimuth and elevation plus other details from your city location.







IsCatalogInMostPopularTable: catalog: 26900, numindb: 738
Update: records affected: 1



GetName: 26900 INTELSAT 902 (IS-902)

Hit Count: updated at: Fri, 18 Jul 2025 15:52:42 GMT